Regional Weather Roundup
Issued by NWS

Home | Current Version | Previous Version | Graphics & Text | Print | Product List | Glossary On
Versions: 1 2 3 4 5 6 7 8 9 10 11 12 13 14 15 16 17 18 19 20 21 22 23 24 25 26 27
000
ASUS45 KSLC 221410
RWRUT

UTAH REGIONAL WEATHER ROUNDUP
NATIONAL WEATHER SERVICE SALT LAKE CITY UT
800 AM MDT WED OCT 22 2014

UTZ001>011-023>025-221500-

NORTHERN UTAH

CITY           SKY/WX    TMP DP  RH WIND       PRES   REMARKS
BRIGHAM CITY   PTCLDY    33  28  82 CALM      30.19R
DUGWAY         PTCLDY    31  25  79 SE3       30.18
HILL AFB       PTCLDY    38  27  64 E16       30.17R WCI  29
LOGAN          CLEAR     27  24  89 NW3       30.19R
OGDEN          PTCLDY    36  29  75 S5        30.17R WCI  32
PROVO AIRPORT  PTCLDY   N/A N/A N/A E3        30.19R
SALT LAKE CITY PTCLDY    39  33  79 SE7       30.17R WCI  34
VERNAL         CLOUDY    42  37  82 NW5       30.15R
WENDOVER       MOCLDY    39  28  65 NW3       30.18R
HEBER CITY     CLEAR     27  23  86 CALM      30.20R
WEST JORDAN    CLEAR     37  30  75 SW5       30.18R WCI  34

$$

UTZ012>022-026-027-221500-

SOUTHERN/CENTRAL UTAH

CITY           SKY/WX    TMP DP  RH WIND       PRES   REMARKS
BLANDING       CLEAR     45  40  82 NE7       30.22R
BRYCE CANYON   CLOUDY    32  30  92 W7        30.23R WCI  26
CEDAR CITY     MOCLDY    38  30  73 S3        30.17R
DELTA          MOCLDY    36  29  75 CALM      30.17S
HANKSVILLE       N/A     41  32  70 CALM      30.11R
MILFORD        MOCLDY    38  26  62 NW6       30.16R WCI  33
MOAB/CYNLANDS  CLEAR     49  42  77 CALM      30.08R
PRICE          CLEAR     41  29  62 NE6       30.13R
ST GEORGE      SUNNY     55  36  47 CALM      30.06R
KANAB            N/A     45  36  70 N9        30.16R

$$

REGIONAL REPORTS     COLORADO/ARIZONA

CITY           SKY/WX    TMP DP  RH WIND       PRES   REMARKS
CRAIG, CO      CLOUDY    40  37  89 CALM      30.17R
GRAND JUNCTION CLEAR     44  41  89 VRB3      30.12R
RIFLE          CLEAR     40  39  97 CALM      30.16R
MONTROSE       PTCLDY    43  39  86 SE5       30.17R
CORTEZ         PTCLDY    39  36  89 E6        30.17R WCI  35
PAGE, AZ       MOCLDY    57  38  48 CALM      30.08R
GRAND CANYON   PTCLDY    31  27  85 CALM      30.21R
KINGMAN        CLEAR     50  42  74 CALM      30.04R
FLAGSTAFF      PTCLDY    35  32  88 CALM      30.22R

$$

REGIONAL REPORTS    NEVADA/IDAHO/WYOMING

CITY           SKY/WX    TMP DP  RH WIND       PRES   REMARKS
LAS VEGAS, NV  PTCLDY    62  27  26 S9        29.95R
ELY            MOCLDY    26  12  55 S10       30.20R WCI  16
ELKO           MOCLDY    28  17  63 NE3       30.18R
POCATELLO, ID  CLEAR     25  24  96 W3        30.19R
BURLEY         CLEAR     30  26  85 E3        30.15R
EVANSTON, WY   PTCLDY    28  22  78 CALM      30.20R
ROCK SPRINGS   PTCLDY    31  26  82 SW8       30.19R WCI  23

$$



USA.gov is the U.S. government's official web portal to all federal, state and local government web resources and services.